Regional Weather Roundup
Issued by NWS

Home | Current Version | Previous Version | Text Only | Print | Product List | Glossary Off
Versions: 1 2 3 4 5 6 7 8 9 10 11 12 13 14 15 16 17 18 19 20 21 22 23 24 25 26 27

000
ASUS45 KBOU 230706
RWRCO

WEATHER ROUNDUP FOR COLORADO
NATIONAL WEATHER SERVICE DENVER/BOULDER CO
100 AM MDT WED APR 23 2014

NOTE: "FAIR" INDICATES FEW OR NO CLOUDS BELOW 12000 FEET WITH NO
SIGNIFICANT WEATHER AND/OR OBSTRUCTIONS TO VISIBILITY.

COZ001>005-013-030-031-230800-
...NORTHWEST COLORADO...

CITY           SKY/WX    TMP DP  RH WIND       PRES   REMARKS
CRAIG          LGT RAIN  52  38  58 SW22G52   29.73R
HAYDEN         CLOUDY    52  32  46 W15G36    29.74R
MEEKER         CLOUDY    54  36  50 W10       29.69F
MOUNT WERNER   CLOUDY    45  21  39 S21G35    29.89R
STEAMBOAT SPGS CLOUDY    53  28  38 SW7       29.72R
WALDEN         PTCLDY    46  30  53 S13       29.75F
$$

COZ006>008-011-230800-
...WEST CENTRAL VALLEYS...

CITY           SKY/WX    TMP DP  RH WIND       PRES   REMARKS
GRAND JUNCTION CLOUDY    67  25  20 SW13G24   29.62S
MONTROSE       CLOUDY    64  24  21 S13G21    29.74S
EAGLE          MOCLDY    52  37  58 SE7       29.75F
RIFLE          CLOUDY    67  22  18 SW18G28   29.65F
DELTA          NOT AVBL
NUCLA          NOT AVBL
$$

COZ017>023-064>068-230800-
...SOUTHWEST COLORADO...

CITY           SKY/WX    TMP DP  RH WIND       PRES   REMARKS
DURANGO        CLOUDY    58  20  22 SW14      29.88S
CORTEZ         CLEAR     61  27  27 SW16      29.84S
PAGOSA SPRINGS CLOUDY    58  17  20 W14G21    29.92S
TELLURIDE      CLOUDY    52  19  28 S20G36    29.92F
WOLF CREEK PAS CLOUDY    34  21  60 SW29G41   30.07F WCI  20
$$

COZ009-010-012-014-032>034-037-058>063-230800-
...CENTRAL COLORADO...

CITY           SKY/WX    TMP DP  RH WIND       PRES   REMARKS
ASPEN          MOCLDY    54  24  31 S14G24    29.78F
BUENA VISTA    MOCLDY    49  31  49 SE13G18   29.84F
COPPER MTN     PTCLDY    37  27  65 SW21G32   30.00F
BERTHOUD PASS  FAIR      32  23  69 W20G38    30.01F WCI  20
COTTONWOOD PAS CLOUDY    50  21  32 W12G30    29.93S
GUNNISON       CLOUDY    45  32  61 NW3       29.88S
KREMMLING      PTCLDY    50  30  46 S7        29.76F
LEADVILLE      MOCLDY    40  27  59 S16G22    29.91F
MONARCH PASS   CLOUDY    36  27  69 SW40      30.12F
SALIDA         CLOUDY    57  29  33 SW7       29.92S
SUNLIGHT       CLOUDY    41  27  56 CALM      29.91R
WILKERSON PASS PTCLDY    36  27  69 S12G20    29.99F
$$

COZ069>075-230800-
...SAN LUIS VALLEY/SANGRE DE CRISTO MOUNTAINS...

CITY           SKY/WX    TMP DP  RH WIND       PRES   REMARKS
ALAMOSA        PTCLDY    50  28  42 W5        29.90S
LA VETA PASS   CLOUDY    43  28  56 SW22G36   29.96F
SAGUACHE       MOCLDY    43  30  61 NW8       29.90S
$$

COZ035-036-038>040-230800-
...NORTHERN COLORADO FRONT RANGE...

CITY           SKY/WX    TMP DP  RH WIND       PRES   REMARKS
DENVER INTL AP CLOUDY    60  32  34 S18       29.65F
DMNS CITY PARK   N/A     61  32  32 S7G14     29.64F
AURORA         MOCLDY    55  34  44 S14       29.67F
FRONT RANGE AP NOT AVBL
ERIE MUNI ARPT PTCLDY    58  36  43 SW3       29.62F
BOULDER MUN AP PTCLDY    59  32  36 SW7       29.62F
CENTENNIAL     MOCLDY    54  32  43 S8        29.68F
BROOMFIELD     PTCLDY    59  36  41 SW12      29.65F
FORT COLLINS   MOCLDY    54  37  54 S5        29.63S
LONGMONT       NOT AVBL
$$

COZ041-046-047-076>085-087-088-230800-
...PIKES PEAK/PALMER DIVIDE AND SOUTHERN FOOTHILLS...

CITY           SKY/WX    TMP DP  RH WIND       PRES   REMARKS
COLO. SPRINGS  MOCLDY    55  34  45 SE7       29.75F
A. F. ACADEMY  MOCLDY    51  34  53 VRB2      29.76F
ELLICOTT       NOT AVBL
FALCON         MOCLDY    51  33  50 S5        29.80S
FORT CARSON    MOCLDY    56  33  41 SW5       29.72F
LIMON          CLOUDY    56  41  57 S12       29.70F
MONUMENT HILL  MOCLDY    50  32  50 S10       29.77F
TRINIDAD       PTCLDY    63  38  39 SW16      29.83S
$$

COZ042>045-048>051-090-091-230800-
...NORTHEAST COLORADO...

CITY           SKY/WX    TMP DP  RH WIND       PRES   REMARKS
GREELEY ARPT   CLOUDY    52  37  58 CALM      29.61F
AKRON          MOCLDY    63  41  44 S21G26    29.62F
BURLINGTON     PTCLDY    57  43  59 S22       29.69F
WRAY           CLEAR     60  47  61 S21G31    29.64F
STERLING       NOT AVBL
HOLYOKE        NOT AVBL
FORT MORGAN    NOT AVBL
$$

COZ086-089-092>099-230800-
...SOUTHEAST COLORADO...

CITY           SKY/WX    TMP DP  RH WIND       PRES   REMARKS
PUEBLO         CLOUDY    63  39  41 S13       29.68F
LA JUNTA       CLOUDY    69  40  34 S25       29.70F
LAMAR          MOCLDY    64  42  44 SW23      29.67F
SPRINGFIELD      N/A     64  40  41 S25G36    29.79F
$$



USA.gov is the U.S. government's official web portal to all federal, state and local government web resources and services.